Simultaneous Nadir Overpasses (SNOs) Predictions

Prediction of SNOs between FY3D and AQUA Satellite Orbit:

Table of predicted SNOs for the next 14.0 days since TLE Epoch: 8/26/2023
Index Date (FY3D) Time (FY3D) Lat,Lon (FY3D) SZA (FY3D ) Date (AQUA) Time (AQUA) Lat,Lon (AQUA) SZA (AQUA ) Distance(km) Time Diff (sec)
1 08/27/2023 19:36:11 -78.89, 46.42 110.41 08/27/2023 19:37:07 -78.90, 46.33 110.42 2.01 56
2 08/27/2023 20:26:49 78.59,-144.27 69.19 08/27/2023 20:26:24 78.59,-144.30 69.20 0.61 25
3 08/30/2023 09:21:47 78.91, 19.95 70.51 08/30/2023 09:22:20 78.91, 20.00 70.49 1.10 33
4 08/30/2023 10:12:21 -78.50,-170.06 110.04 08/30/2023 10:11:34 -78.50,-170.06 110.03 0.19 47
5 09/01/2023 23:07:20 -78.86, -6.04 108.66 09/01/2023 23:07:30 -78.85, -5.92 108.68 2.78 10
6 09/01/2023 23:57:53 78.37, 164.35 70.71 09/01/2023 23:56:43 78.38, 164.30 70.73 1.16 70
7 09/04/2023 12:02:14 -79.03, 159.09 107.51 09/04/2023 12:03:21 -79.02, 159.13 107.54 1.09 67
8 09/04/2023 12:52:49 78.64, -30.94 71.97 09/04/2023 12:52:36 78.65, -31.04 71.99 2.52 13
9 09/07/2023 01:47:45 78.90, 133.67 73.25 09/07/2023 01:48:28 78.90, 133.59 73.25 1.99 43



Historial Predications of SNOs between FY3D and AQUA
